Current weather by "City, St" or "zip code"  
 
Advertise Here

Current Conditions: Fort Sill, OK

Fair


78.0 F

Last Updated on Sep 16 2021, 9:56 pm CDT
Humidity: 59%
Wind Speed: SE 9.2 mph
Barometer 29.91 in
Dewpoint: 63.0 F
Visibility: 10.00 mi
Precip: --
Heat Index: NA
Wind Chill: NA
Current conditions at:

Fort Sill, OK (KFSI)

Lat: 34.6 Lon: 98.4

Local Radar Image active severe weather and emergency alerts image image weather storm and storm spotter reports image weather observation monitoring service image
Local
Radar
Active
Alerts
Storm Reports Obs
Monitoring

Sign-up For Email & Text Message Weather Alert Notification Services



Advertise Here

Observation History for Fort Sill, OK


Time Wind
(mph)
Vis
(mi)
Weather Precip (in) Temperature (F) Relative
Humidity
Wind
Chill
(F)
Heat
Index
(F)
Pressure
Air Dwpt altimeter
(in)
sea level
(mb)
Rmks
9:56 pm CDT SE 9.2 10.00 Fair -- 78.0 63.0 59% NA NA 29.91 1011.9
8:56 pm CDT SE 8.1 10.00 Fair -- 80.0 64.0 59% NA 82 29.90 1011.6
7:56 pm CDT SE 6.9 10.00 Fair -- 83.0 63.9 53% NA 84 29.88 1011.0
6:56 pm CDT SE 9.2 10.00 Fair -- 87.0 62.6 44% NA 88 29.86 1010.2
5:56 pm CDT S 11.5 10.00 Fair -- 90.0 61.2 38% NA 90 29.85 1009.8
4:56 pm CDT S 8.1 10.00 A Few Clouds -- 91.0 62.1 39% NA 92 29.86 1010.1
3:56 pm CDT SE 10.4 10.00 Fair -- 92.0 62.4 38% NA 93 29.87 1010.5
2:56 pm CDT SE 6.9 10.00 A Few Clouds -- 92.0 62.2 38% NA 93 29.89 1011.1
1:56 pm CDT SE 9.2 10.00 Fair -- 91.0 63.5 41% NA 92 29.91 1011.8
12:56 pm CDT S 6.9 G 18.4 10.00 Partly Cloudy -- 88.0 65.5 47% NA 90 29.94 1012.8
11:56 am CDT S 9.2 10.00 A Few Clouds -- 87.0 66.2 50% NA 89 29.96 1013.5
10:56 am CDT S 4.6 10.00 Fair -- 83.0 66.6 57% NA 85 29.97 1013.9
9:56 am CDT S 4.6 10.00 Fair -- 80.0 66.0 63% NA 82 29.96 1013.7
8:56 am CDT N 0.0 10.00 Fair -- 72.0 66.2 81% NA NA 29.96 1013.7
7:56 am CDT N 0.0 10.00 Fair -- 67.0 64.2 91% NA NA 29.95 1013.4
6:56 am CDT N 0.0 10.00 Fair -- 66.0 64.0 93% NA NA 29.93 1012.7
5:56 am CDT N 0.0 10.00 Fair -- 69.0 64.4 87% NA NA 29.91 1012.0
4:56 am CDT N 0.0 10.00 Fair -- 69.0 64.9 86% NA NA 29.91 1011.9
3:56 am CDT N 0.0 10.00 Fair -- 71.0 64.9 82% NA NA 29.91 M
2:56 am CDT N 0.0 10.00 Fair -- 71.0 64.6 80% NA NA 29.92 M
1:56 am CDT N 0.0 10.00 Fair -- 71.0 64.6 80% NA NA 29.93 M
12:56 am CDT N 0.0 10.00 Fair -- 72.0 64.6 77% NA NA 29.94 M
11:56 pm CDT N 0.0 10.00 Fair -- 72.0 64.2 76% NA NA 29.94 M
10:56 pm CDT N 0.0 10.00 Fair -- 74.0 64.4 72% NA NA 29.94 1013.0

Regional Weather Observation


Lawton, Lawton Municipal Airport, OK (KLAW)

Fair
80.0 F

Frederick, Frederick Municipal Airport, OK (KFDR)

Fair
80.0 F

Hobart, Hobart Municipal Airport, OK (KHBR)

Fair
81.0 F

Altus Air Force Base, OK (KLTS)

Fair
77.0 F

Altus, Altus/Quartz Mountain Regional Airport, OK (KAXS)

Fair
81.0 F

Weatherford, Thomas P Stafford Airport, OK (KOJA)

Fair
77.0 F
Advertise Here


Advertise Here